This is the latest recevied weather packets stored in our database for station/object VE3TEJ. If no packets are shown the sender has not sent any weather packets the latest 10 day(s).
| Time | Temp. | Humidity | Pressure | Rain* | Wind** | Luminosity | Snow |
|---|---|---|---|---|---|---|---|
| 1777298678 | 14.44° C | 61% | 1020.6 hPa | 0 mm | - | - | - |
| 1777298376 | 14.44° C | 60% | 1020.7 hPa | 0 mm | - | - | - |
| 1777298076 | 14.44° C | 61% | 1021 hPa | 0 mm | - | - | - |
| 1777297778 | 14.44° C | 60% | 1020.7 hPa | 0 mm | - | - | - |
| 1777297476 | 15° C | 60% | 1020.8 hPa | 0 mm | - | - | - |
| 1777297176 | 14.44° C | 60% | 1020.7 hPa | 0 mm | - | - | - |
| 1777296876 | 14.44° C | 61% | 1020.7 hPa | 0 mm | - | - | - |
| 1777296577 | 13.89° C | 62% | 1020.6 hPa | 0 mm | - | - | - |
| 1777296277 | 13.89° C | 62% | 1020.6 hPa | 0 mm | - | - | - |
| 1777295976 | 13.33° C | 63% | 1020.4 hPa | 0 mm | - | - | - |
| 1777295677 | 12.78° C | 63% | 1020.6 hPa | 0 mm | - | - | - |
| 1777295377 | 12.78° C | 63% | 1020.4 hPa | 0 mm | - | - | - |
| 1777295077 | 12.78° C | 63% | 1020.4 hPa | 0 mm | - | - | - |
| 1777294777 | 12.78° C | 63% | 1020.3 hPa | 0 mm | - | - | - |
| 1777294476 | 12.78° C | 63% | 1020.4 hPa | 0 mm | - | - | - |
| 1777294178 | 12.78° C | 63% | 1020.4 hPa | 0 mm | - | - | - |
| 1777293878 | 12.22° C | 63% | 1020.6 hPa | 0 mm | - | - | - |
| 1777293577 | 11.67° C | 63% | 1020.6 hPa | 0 mm | - | - | - |
| 1777293277 | 11.67° C | 63% | 1020.5 hPa | 0 mm | - | - | - |
| 1777292976 | 11.11° C | 63% | 1020.6 hPa | 0 mm | - | - | - |
| 1777292677 | 10.56° C | 63% | 1020.4 hPa | 0 mm | - | - | - |
| 1777292378 | 10° C | 64% | 1020.6 hPa | 0 mm | - | - | - |
| 1777292077 | 10° C | 63% | 1020.6 hPa | 0 mm | - | - | - |
| 1777291777 | 10° C | 63% | 1020.6 hPa | 0 mm | - | - | - |
| 1777291477 | 10° C | 63% | 1020.6 hPa | 0 mm | - | - | - |
* Rain latest hour (hover to see other rain measurements)
** Current wind speed in m/s (hover to see current wind gust speed)